Showing default

COSMOS 2129, 21104

Orbit data source: Space-Track

COSMOS 2129, 21104 is a payload satellite owned by UNKS RF (CIS) in LEO that was launched on Tue, 12 Feb 1991 UTC via a KOSMOS 11K65M launch vehicle from the Plesetsk Missile And Space Complex (PKMTR). Payload-class satellites include a variety of spacecraft equipped with specific instruments for various scientific and technological missions. These include communications satellites like Starlink; space stations such as the ISS; scientific satellites like the Hubble; Earth observation satellites from companies like Planet Labs, Umbra, and HawkEye 360; GPS; miniature CubeSats for education and research; and military/defense satellites.

Loading next visibility...
Identifier
21104, 1991-009E
Orbit
LEO
Country
Flag of CISCIS
Related business
Manufacturer
NPO PM
Mission
Defense Communications
Bus & Motor
STRELA-1 11F625, Unknown motor
Mass
60 kg wet, 60 kg dry
Launch date (UTC)
1991-02-12 (35 years ago)
Launch vehicle
KOSMOS 11K65M
Launch site
Plesetsk Missile And Space Complex (PKMTR)
Object type
Payload
Rocket body
Debris
Shape & HBR
Sphere, 0.4 m
Radar Cross Section
0.588 m², Medium (>0.1 m² and < 1m²)

Expand to show TLE details & history
Last TLE update: 2 days ago

TLE from 2 days ago
0 COSMOS 2129
1 21104U 91009E   26171.48093847 -.00000026  00000-0 -60812-4 0  9998
2 21104  74.0274 194.9125 0024933   3.5046  70.9888 12.53744095617930
Epoch: 2026-06-20T11:32Z
TLE epoch observation values (Epoch: 2026-06-20T11:32:33.083Z)
Latitude
68.14944°
Longitude
158.33765°
Altitude
1,453.994 km
Speed
7.144 km/s
True Right ascension
16h 00m 40s
True Declination
68° 02' 27"
Sunlit
Object was in daylight at epoch
Visualization orbit readout
Latitude
Unknown
Longitude
Unknown
Altitude
Unknown
Speed
Unknown
Apparent Right ascension
Unknown
Apparent Declination
Unknown
Sunlit
N/A
Visualization observer readout
Local Sidereal Time
08:32:04
Azimuth
Unknown
Elevation
Unknown
Doppler factor
Unknown
Orbital elements
Apogee altitude
1,466.214 km
Perigee altitude
1,427.195 km
Semi-major axis
7,824.841 km
Eccentricity
0.00249
Inclination
74.0274°
RAAN
194.9125°
Arg. of periapsis
3.5046°
True anomaly
71.2592°
Mean anomaly
70.9888°
Eccentric anomaly
71.12397°
Mean motion
3.13567 °/min
Orbital period
114.81 mins
BSTAR
-0.000060812
Loading maneuver chart data...
Computing Atmospheric mass density...
Loading historical data...
Loading historical data...
Loading historical data...
Loading historical data...
Loading historical data...
Loading historical data...
Loading historical data...

Documentation

Showing up to 5 results
|